Location: Powder Track
(41.8531°N, 72.3584°W)
Time: 00:08:43
(UTC+00:00)

Altair - Visible Passes

Search period start: 29 July 2021 00:00
Search period end: 08 August 2021 00:00
Orbit: 1501 x 1682 km, 47.2° (Epoch: 28 July)

Date Brightness Start Highest point End Pass type
(mag) Time Alt. Az. Time Alt. Az. Time Alt. Az.
29 Jul 8.6 05:10:50 23° ESE 05:10:50 23° ESE 05:16:43 10° E visible
29 Jul 7.4 07:08:50 34° SW 07:13:27 71° SSE 07:22:35 10° ENE visible
30 Jul 8.8 04:46:46 20° ESE 04:46:46 20° ESE 04:51:17 10° E visible
30 Jul 7.4 06:44:45 41° SSW 06:48:19 67° SE 06:57:24 10° ENE visible
30 Jul 7.7 08:43:51 10° W 08:53:08 68° NNW 09:02:18 10° ENE visible
31 Jul 8.9 04:22:39 17° ESE 04:22:39 17° ESE 04:25:47 10° E visible
31 Jul 7.5 06:20:38 48° SSW 06:23:11 62° SE 06:32:14 10° ENE visible
31 Jul 7.7 08:18:38 10° W 08:27:55 70° NNW 08:37:06 10° ENE visible
01 Aug 9.1 03:58:30 13° E 03:58:30 13° E 04:00:11 10° E visible
01 Aug 7.5 05:56:29 53° S 05:58:04 58° SE 06:07:03 10° ENE visible
01 Aug 7.6 07:54:28 15° W 08:02:43 72° NNW 08:11:54 10° ENE visible
02 Aug 9.2 03:34:18 10° E 03:34:18 10° E 03:34:29 10° E visible
02 Aug 7.5 05:32:17 54° SSE 05:32:56 54° SE 05:41:51 10° ENE visible
02 Aug 7.6 07:30:16 19° W 07:37:30 75° NNW 07:46:43 10° ENE visible
03 Aug 7.6 05:08:03 51° SE 05:08:03 51° SE 05:16:39 10° ENE visible
03 Aug 7.5 07:06:01 24° WSW 07:12:18 77° NNW 07:21:32 10° ENE visible
03 Aug 7.9 09:08:33 10° WNW 09:17:47 64° N 09:26:53 10° E visible
04 Aug 7.8 04:43:45 46° ESE 04:43:45 46° ESE 04:51:27 10° ENE visible
04 Aug 7.4 06:41:43 30° WSW 06:47:05 80° NNW 06:56:21 10° ENE visible
04 Aug 7.9 08:43:17 10° WNW 08:52:32 63° N 09:01:39 10° E visible
05 Aug 7.9 04:19:23 40° ESE 04:19:23 40° ESE 04:26:14 10° ENE visible
05 Aug 7.4 06:17:21 36° WSW 06:21:53 83° NNW 06:31:10 10° ENE visible
05 Aug 7.9 08:18:02 10° W 08:27:19 63° N 08:36:25 10° E visible
06 Aug 8.1 03:54:57 35° ESE 03:54:57 35° ESE 04:01:00 10° ENE visible
06 Aug 7.4 05:52:54 43° WSW 05:56:42 86° NNW 06:06:01 10° ENE visible
06 Aug 7.8 07:52:46 10° W 08:02:04 63° N 08:11:11 10° E visible
07 Aug 8.3 03:30:24 31° E 03:30:24 31° E 03:35:46 10° ENE visible
07 Aug 7.3 05:28:21 49° WSW 05:31:31 90° NNW 05:40:51 10° ENE visible
07 Aug 7.8 07:27:29 10° W 07:36:50 63° N 07:45:58 10° E visible
